Change the Weather History Date:

Sunday, May 20, 2012

  Actual Average Record
Temperature  
Mean Temperature 67 °F 67 °F  
Max Temperature 79 °F 79 °F 96 °F (1934)
Min Temperature 54 °F 56 °F 41 °F (1976)
Degree Days  
Heating Degree Days 0 2  
Month to date heating degree days 10 60  
Since 1 July heating degree days 2855 3752  
Cooling Degree Days 2 4  
Month to date cooling degree days 78 57  
Year to date cooling degree days 146 99  
Growing Degree Days 16 (Base 50)    
Moisture  
Dew Point 57 °F    
Average Humidity 64    
Maximum Humidity 86    
Minimum Humidity 42    
Precipitation  
Precipitation 0.04 in 0.13 in 3.22 in (1889)
Month to date precipitation 2.15 2.34  
Year to date precipitation 12.01 15.45  
Snow  
Snow 0.00 in 0.00 in 0.00 in (2002)
Month to date snowfall 0.0 0.0  
Since 1 July snowfall 4.5 10.3  
Snow Depth 0.00 in    
Sea Level Pressure  
Sea Level Pressure 30.10 in    
Wind  
Wind Speed 10 mph (NNE)    
Max Wind Speed 21 mph    
Max Gust Speed 30 mph    
Visibility 9 miles    
Events Rain    
T = Trace of Precipitation, MM = Missing Value Source: NWS Daily Summary

Daily Weather History Graph

Daily Weather History Graph

Search for Another Location

Airport or City:

Trip Planner

Search our weather history database for the weather conditions in past years. The results will help you decide how hot, cold, wet, or windy it might be!

Date:

Astronomy

May. 20, 2012 Rise Set
Actual Time 5:55 AM EDT 8:16 PM EDT
Civil Twilight 5:26 AM EDT 8:46 PM EDT
Nautical Twilight 4:49 AM EDT 9:22 PM EDT
Astronomical Twilight 4:09 AM EDT 10:03 PM EDT
Moon 5:34 AM EDT (5/20) 8:13 PM EDT (5/20)
Length of Visible Light 15h 19m
Length of Day
14h 20m
Waning Crescent, 0% of the Moon is Illuminated
May 20
Waning Crescent
May 20
New
May 28
First Quarter
Jun 4
Full
Jun 11
Last Quarter

Hourly Weather History & Observations

Time (EDT) Temp. Dew Point Humidity Pressure Visibility Wind Dir Wind Speed Gust Speed Precip Events Conditions
12:54 AM 62.1 °F 51.1 °F 67% 30.14 in 10.0 mi Calm Calm - N/A   Scattered Clouds
1:54 AM 59.0 °F 51.1 °F 75% 30.13 in 10.0 mi Calm Calm - N/A   Scattered Clouds
2:54 AM 55.9 °F 51.1 °F 84% 30.12 in 10.0 mi North 3.5 mph - N/A   Scattered Clouds
3:54 AM 55.0 °F 48.0 °F 77% 30.12 in 10.0 mi North 6.9 mph - N/A   Scattered Clouds
4:54 AM 55.0 °F 48.0 °F 77% 30.12 in 10.0 mi North 6.9 mph - N/A   Scattered Clouds
5:54 AM 55.4 °F 48.2 °F 77% 30.10 in 10.0 mi North 8.1 mph - N/A   Scattered Clouds
6:54 AM 57.9 °F 48.0 °F 70% 30.13 in 10.0 mi North 8.1 mph - N/A   Scattered Clouds
7:54 AM 63.0 °F 48.0 °F 58% 30.14 in 10.0 mi North 8.1 mph - N/A   Scattered Clouds
8:54 AM 68.0 °F 44.1 °F 42% 30.15 in 10.0 mi North 12.7 mph 19.6 mph N/A   Mostly Cloudy
9:54 AM 70.0 °F 48.9 °F 47% 30.14 in 10.0 mi NNE 10.4 mph 20.7 mph N/A   Mostly Cloudy
10:54 AM 72.0 °F 53.1 °F 51% 30.14 in 10.0 mi North 16.1 mph - N/A   Overcast
11:54 AM 73.0 °F 57.0 °F 57% 30.14 in 10.0 mi North 17.3 mph 24.2 mph N/A   Mostly Cloudy
12:54 PM 75.9 °F 59.0 °F 56% 30.13 in 10.0 mi NE 16.1 mph 21.9 mph N/A   Mostly Cloudy
1:54 PM 78.1 °F 60.1 °F 54% 30.11 in 10.0 mi NE 13.8 mph 23.0 mph N/A   Mostly Cloudy
2:54 PM 77.0 °F 62.1 °F 60% 30.12 in 10.0 mi NNE 11.5 mph 19.6 mph N/A   Mostly Cloudy
3:54 PM 75.0 °F 61.0 °F 62% 30.11 in 10.0 mi NE 13.8 mph 23.0 mph N/A   Mostly Cloudy
4:54 PM 73.0 °F 61.0 °F 66% 30.09 in 10.0 mi NNE 13.8 mph 21.9 mph 0.00 in   Overcast
5:54 PM 73.0 °F 61.0 °F 66% 30.09 in 10.0 mi NNE 12.7 mph - N/A   Overcast
6:54 PM 70.0 °F 63.0 °F 78% 30.06 in 10.0 mi North 11.5 mph - 0.00 in   Overcast
7:54 PM 69.1 °F 64.0 °F 84% 30.07 in 10.0 mi North 8.1 mph - N/A   Overcast
8:54 PM 70.0 °F 64.0 °F 81% 30.06 in 10.0 mi North 12.7 mph - N/A   Overcast
9:54 PM 66.9 °F 64.9 °F 93% 30.06 in 4.0 mi NNE 8.1 mph - 0.00 in Rain Light Rain
10:03 PM 66.2 °F 64.4 °F 94% 30.05 in 2.5 mi North 8.1 mph - 0.01 in Rain Light Rain
10:26 PM 66.2 °F 64.4 °F 94% 30.05 in 4.0 mi North 9.2 mph - 0.01 in   Overcast
10:54 PM 66.9 °F 64.9 °F 93% 30.05 in 4.0 mi NNE 11.5 mph - 0.01 in Rain Light Rain
11:54 PM 66.0 °F 64.9 °F 96% 30.04 in 3.0 mi NNE 9.2 mph - 0.01 in Rain Light Rain